Torna al catalogo

STARLINK-3119

AttivoComunicazioniVLEO
NORAD 49145·PAYLOAD·🇺🇸 United States

Lanciato Sep 14, 2021 da Vandenberg Space Force Base

Loading…

Prossimi Passaggi (prossime 24 ore)

TLE

AggiornatoSource: CelesTrak SupGP

Epoca: Sep 15, 2026, 01:57 UTC

1 49145C 21082R   26258.08173611  .00037222  00000+0  31193-2 0  2588
2 49145  70.0002 136.9154 0002846 275.3624 261.5670 14.98312480    10

Traccia STARLINK-3119 in tempo reale con AllMySat

Download on the App Store